Terug naar catalogus

SL-12 DEB

LostHEO
NORAD 26804·DEBRIS·🇷🇺 Russia

Gelanceerd Dec 24, 1985 vanaf Baikonur Cosmodrome

Loading…

Volgende Passages (komende 24 uur)

TLE

VerouderdSource: Space-Track

Epoch: Aug 27, 2003, 11:49 UTC

1 26804U 85118AB  03239.49271407 -.00000041 +00000-0 +10000-3 0  9994
2 26804 064.6097 009.7588 4488788 006.5045 356.6756 05.65955095085659

Volg SL-12 DEB in realtime met AllMySat

Download on the App Store